Tracking 23731 objects as of 27-Sep-2021
HD Live streaming from Space Station
objects crossing your sky now

STARLINK-2280

Track STARLINK-2280 now!
10-day predictions
STARLINK-2280 is classified as:


NORAD ID: 47861
Int'l Code: 2021-021B
Perigee: 553.7 km
Apogee: 555.0 km
Inclination: 53.1 °
Period: 95.6 minutes
Semi major axis: 6925 km
RCS: Unknown
Launch date: March 14, 2021
Source: United States (US)
Launch site: AIR FORCE EASTERN TEST RANGE (AFETR)
aabbcc
Your satellite tracking list
Your tracking list is empty




NASA's NSSDC Master Catalog

Two Line Element Set (TLE):
1 47861U 21021B   21269.56694205  .00000762  00000-0  70037-4 0  9995
2 47861  53.0586   2.0734 0000969 139.4003 220.7058 15.06397505 31329
Source of the keplerian elements: AFSPC